Time,TemperatureF,DewpointF,PressureIn,WindDirection,WindDirectionDegrees,WindSpeedMPH,WindSpeedGustMPH,Humidity,HourlyPrecipIn,Conditions,Clouds,dailyrainin,SoftwareType,DateUTC
2013-03-15 00:00:00,18.7,9.6,29.85,NNW,344,7.0,15.0,67,0.00,,---,0.00,VWS V13.00,2013-03-15 04:00:00,
2013-03-15 00:05:00,18.7,9.6,29.84,NW,306,6.0,16.0,67,0.00,,---,0.00,VWS V13.00,2013-03-15 04:05:00,
2013-03-15 00:10:00,18.7,9.6,29.84,NW,318,7.0,14.0,67,0.00,,---,0.00,VWS V13.00,2013-03-15 04:10:00,
2013-03-15 00:15:00,18.6,9.8,29.84,NW,311,4.0,14.0,68,0.00,,---,0.00,VWS V13.00,2013-03-15 04:15:00,
2013-03-15 00:20:00,18.6,9.8,29.84,NNW,327,5.0,14.0,68,0.00,,---,0.00,VWS V13.00,2013-03-15 04:20:00,
2013-03-15 00:25:00,18.5,9.7,29.84,West,279,4.0,14.0,68,0.00,,---,0.00,VWS V13.00,2013-03-15 04:25:00,
2013-03-15 00:30:00,18.4,9.6,29.84,NW,321,5.0,16.0,68,0.00,,---,0.00,VWS V13.00,2013-03-15 04:30:00,
2013-03-15 00:35:00,18.3,9.9,29.85,NW,323,2.0,16.0,69,0.00,,---,0.00,VWS V13.00,2013-03-15 04:35:00,
2013-03-15 00:40:00,18.2,9.8,29.85,NW,311,6.0,12.0,69,0.00,,---,0.00,VWS V13.00,2013-03-15 04:40:00,
2013-03-15 00:45:00,18.1,9.3,29.85,West,281,1.0,12.0,68,0.00,,---,0.00,VWS V13.00,2013-03-15 04:45:00,
2013-03-15 00:50:00,18.0,9.2,29.84,NW,313,4.0,14.0,68,0.00,,---,0.00,VWS V13.00,2013-03-15 04:50:00,
2013-03-15 00:55:00,18.0,8.9,29.85,NNW,342,4.0,14.0,67,0.00,,---,0.00,VWS V13.00,2013-03-15 04:55:00,
2013-03-15 01:00:00,17.9,8.8,29.84,NNW,346,6.0,17.0,67,0.00,,---,0.00,VWS V13.00,2013-03-15 05:00:00,
2013-03-15 01:05:00,17.9,8.8,29.85,NE,38,6.0,17.0,67,0.00,,---,0.00,VWS V13.00,2013-03-15 05:05:00,
2013-03-15 01:10:00,18.0,8.9,29.85,NNW,333,0.0,9.0,67,0.00,,---,0.00,VWS V13.00,2013-03-15 05:10:00,
2013-03-15 01:15:00,17.9,8.8,29.85,WNW,298,6.0,14.0,67,0.00,,---,0.00,VWS V13.00,2013-03-15 05:15:00,
2013-03-15 01:20:00,17.9,8.5,29.85,NW,309,2.0,14.0,66,0.00,,---,0.00,VWS V13.00,2013-03-15 05:20:00,
2013-03-15 01:25:00,17.8,8.4,29.85,NNW,341,5.0,14.0,66,0.00,,---,0.00,VWS V13.00,2013-03-15 05:25:00,
2013-03-15 01:30:00,17.8,8.4,29.85,WNW,299,0.0,14.0,66,0.00,,---,0.00,VWS V13.00,2013-03-15 05:30:00,
2013-03-15 01:35:00,17.8,8.4,29.85,NW,311,3.0,14.0,66,0.00,,---,0.00,VWS V13.00,2013-03-15 05:35:00,
2013-03-15 01:40:00,17.8,8.0,29.85,North,351,6.0,15.0,65,0.00,,---,0.00,VWS V13.00,2013-03-15 05:40:00,
2013-03-15 01:45:00,17.9,8.5,29.85,West,281,5.0,15.0,66,0.00,,---,0.00,VWS V13.00,2013-03-15 05:45:00,
2013-03-15 01:50:00,17.9,8.5,29.85,North,10,2.0,15.0,66,0.00,,---,0.00,VWS V13.00,2013-03-15 05:50:00,
2013-03-15 01:55:00,17.9,8.5,29.86,NW,312,8.0,15.0,66,0.00,,---,0.00,VWS V13.00,2013-03-15 05:55:00,
2013-03-15 02:00:00,17.9,8.1,29.86,NE,36,2.0,18.0,65,0.00,,---,0.00,VWS V13.00,2013-03-15 06:00:00,
2013-03-15 02:05:00,17.9,8.5,29.85,WNW,303,4.0,18.0,66,0.00,,---,0.00,VWS V13.00,2013-03-15 06:05:00,
2013-03-15 02:10:00,17.8,8.0,29.85,NW,323,3.0,10.0,65,0.00,,---,0.00,VWS V13.00,2013-03-15 06:10:00,
2013-03-15 02:15:00,17.7,8.3,29.85,NNW,338,8.0,11.0,66,0.00,,---,0.00,VWS V13.00,2013-03-15 06:15:00,
2013-03-15 02:20:00,17.7,8.6,29.85,NNW,340,7.0,14.0,67,0.00,,---,0.00,VWS V13.00,2013-03-15 06:20:00,
2013-03-15 02:25:00,17.7,8.3,29.85,West,273,11.0,15.0,66,0.00,,---,0.00,VWS V13.00,2013-03-15 06:25:00,
2013-03-15 02:30:00,17.6,8.2,29.85,WNW,299,10.0,17.0,66,0.00,,---,0.00,VWS V13.00,2013-03-15 06:30:00,
2013-03-15 02:35:00,17.7,7.9,29.85,NW,314,4.0,17.0,65,0.00,,---,0.00,VWS V13.00,2013-03-15 06:35:00,
2013-03-15 02:40:00,17.6,8.2,29.85,WNW,298,7.0,20.0,66,0.00,,---,0.00,VWS V13.00,2013-03-15 06:40:00,
2013-03-15 02:45:00,17.6,8.2,29.86,WNW,300,9.0,20.0,66,0.00,,---,0.00,VWS V13.00,2013-03-15 06:45:00,
2013-03-15 02:50:00,17.5,7.8,29.86,NW,314,6.0,20.0,65,0.00,,---,0.00,VWS V13.00,2013-03-15 06:50:00,
2013-03-15 02:55:00,17.4,8.0,29.86,WNW,290,3.0,20.0,66,0.00,,---,0.00,VWS V13.00,2013-03-15 06:55:00,
2013-03-15 03:00:00,17.3,7.6,29.86,WNW,294,2.0,20.0,65,0.00,,---,0.00,VWS V13.00,2013-03-15 07:00:00,
2013-03-15 03:05:00,17.3,7.6,29.86,WNW,300,5.0,20.0,65,0.00,,---,0.00,VWS V13.00,2013-03-15 07:05:00,
2013-03-15 03:10:00,17.3,7.6,29.85,West,263,1.0,15.0,65,0.00,,---,0.00,VWS V13.00,2013-03-15 07:10:00,
2013-03-15 03:15:00,17.2,7.5,29.85,NNW,329,5.0,15.0,65,0.00,,---,0.00,VWS V13.00,2013-03-15 07:15:00,
2013-03-15 03:20:00,17.1,7.7,29.85,North,355,11.0,21.0,66,0.00,,---,0.00,VWS V13.00,2013-03-15 07:20:00,
2013-03-15 03:25:00,17.1,7.4,29.85,WNW,299,17.0,21.0,65,0.00,,---,0.00,VWS V13.00,2013-03-15 07:25:00,
2013-03-15 03:30:00,17.0,6.9,29.85,NW,311,5.0,21.0,64,0.00,,---,0.00,VWS V13.00,2013-03-15 07:30:00,
2013-03-15 03:35:00,17.0,6.9,29.85,WNW,300,4.0,22.0,64,0.00,,---,0.00,VWS V13.00,2013-03-15 07:35:00,
2013-03-15 03:40:00,16.9,6.5,29.84,WNW,298,5.0,19.0,63,0.00,,---,0.00,VWS V13.00,2013-03-15 07:40:00,
2013-03-15 03:45:00,16.9,6.5,29.84,WNW,298,3.0,20.0,63,0.00,,---,0.00,VWS V13.00,2013-03-15 07:45:00,
2013-03-15 03:50:00,16.8,6.1,29.84,WNW,296,11.0,20.0,62,0.00,,---,0.00,VWS V13.00,2013-03-15 07:50:00,
2013-03-15 03:55:00,16.8,6.4,29.85,NNW,334,3.0,20.0,63,0.00,,---,0.00,VWS V13.00,2013-03-15 07:55:00,
2013-03-15 04:00:00,16.7,6.0,29.84,NNW,338,4.0,20.0,62,0.00,,---,0.00,VWS V13.00,2013-03-15 08:00:00,
2013-03-15 04:05:00,16.6,6.2,29.85,NW,308,2.0,20.0,63,0.00,,---,0.00,VWS V13.00,2013-03-15 08:05:00,
2013-03-15 04:10:00,16.6,6.6,29.84,NNW,338,2.0,11.0,64,0.00,,---,0.00,VWS V13.00,2013-03-15 08:10:00,
2013-03-15 04:15:00,16.4,6.4,29.84,NW,325,9.0,14.0,64,0.00,,---,0.00,VWS V13.00,2013-03-15 08:15:00,
2013-03-15 04:20:00,16.4,6.4,29.85,NW,322,5.0,14.0,64,0.00,,---,0.00,VWS V13.00,2013-03-15 08:20:00,
2013-03-15 04:25:00,16.4,6.4,29.85,WNW,295,2.0,14.0,64,0.00,,---,0.00,VWS V13.00,2013-03-15 08:25:00,
2013-03-15 04:30:00,16.3,6.3,29.85,WNW,286,4.0,17.0,64,0.00,,---,0.00,VWS V13.00,2013-03-15 08:30:00,
2013-03-15 04:35:00,16.3,6.3,29.85,NW,317,7.0,17.0,64,0.00,,---,0.00,VWS V13.00,2013-03-15 08:35:00,
2013-03-15 04:40:00,16.2,6.5,29.85,NW,313,4.0,12.0,65,0.00,,---,0.00,VWS V13.00,2013-03-15 08:40:00,
2013-03-15 04:45:00,16.2,6.5,29.85,West,279,9.0,15.0,65,0.00,,---,0.00,VWS V13.00,2013-03-15 08:45:00,
2013-03-15 04:50:00,16.1,6.1,29.86,WNW,290,5.0,17.0,64,0.00,,---,0.00,VWS V13.00,2013-03-15 08:50:00,
2013-03-15 04:55:00,16.1,6.1,29.85,NW,321,14.0,19.0,64,0.00,,---,0.00,VWS V13.00,2013-03-15 08:55:00,
2013-03-15 05:00:00,16.1,6.4,29.85,NW,312,3.0,19.0,65,0.00,,---,0.00,VWS V13.00,2013-03-15 09:00:00,
2013-03-15 05:05:00,16.1,6.4,29.86,NNW,347,7.0,19.0,65,0.00,,---,0.00,VWS V13.00,2013-03-15 09:05:00,
2013-03-15 05:10:00,16.1,6.4,29.86,NW,309,6.0,18.0,65,0.00,,---,0.00,VWS V13.00,2013-03-15 09:10:00,
2013-03-15 05:15:00,16.1,6.4,29.86,NW,311,5.0,18.0,65,0.00,,---,0.00,VWS V13.00,2013-03-15 09:15:00,
2013-03-15 05:20:00,16.1,6.4,29.86,NNW,329,2.0,18.0,65,0.00,,---,0.00,VWS V13.00,2013-03-15 09:20:00,
2013-03-15 05:25:00,16.0,6.7,29.86,NW,315,3.0,18.0,66,0.00,,---,0.00,VWS V13.00,2013-03-15 09:25:00,
2013-03-15 05:30:00,15.9,6.6,29.86,NNW,330,4.0,18.0,66,0.00,,---,0.00,VWS V13.00,2013-03-15 09:30:00,
2013-03-15 05:35:00,15.9,6.9,29.86,NW,322,0.0,18.0,67,0.00,,---,0.00,VWS V13.00,2013-03-15 09:35:00,
2013-03-15 05:40:00,15.8,6.8,29.86,NNW,327,2.0,10.0,67,0.00,,---,0.00,VWS V13.00,2013-03-15 09:40:00,
2013-03-15 05:45:00,15.8,6.8,29.86,NW,319,3.0,15.0,67,0.00,,---,0.00,VWS V13.00,2013-03-15 09:45:00,
2013-03-15 05:50:00,15.8,7.1,29.86,NW,313,3.0,15.0,68,0.00,,---,0.00,VWS V13.00,2013-03-15 09:50:00,
2013-03-15 05:55:00,15.8,7.1,29.86,NW,305,3.0,15.0,68,0.00,,---,0.00,VWS V13.00,2013-03-15 09:55:00,
2013-03-15 06:00:00,15.7,7.0,29.86,NW,314,6.0,15.0,68,0.00,,---,0.00,VWS V13.00,2013-03-15 10:00:00,
2013-03-15 06:05:00,15.7,7.0,29.86,North,360,3.0,15.0,68,0.00,,---,0.00,VWS V13.00,2013-03-15 10:05:00,
2013-03-15 06:10:00,15.7,7.0,29.86,North,9,5.0,12.0,68,0.00,,---,0.00,VWS V13.00,2013-03-15 10:10:00,
2013-03-15 06:15:00,15.7,7.3,29.86,NW,304,3.0,12.0,69,0.00,,---,0.00,VWS V13.00,2013-03-15 10:15:00,
2013-03-15 06:20:00,15.6,7.3,29.86,NW,306,4.0,12.0,69,0.00,,---,0.00,VWS V13.00,2013-03-15 10:20:00,
2013-03-15 06:25:00,15.5,7.5,29.86,WNW,290,6.0,12.0,70,0.00,,---,0.00,VWS V13.00,2013-03-15 10:25:00,
2013-03-15 06:30:00,15.5,7.5,29.86,WNW,302,5.0,12.0,70,0.00,,---,0.00,VWS V13.00,2013-03-15 10:30:00,
2013-03-15 06:35:00,15.6,7.6,29.86,NW,311,6.0,12.0,70,0.00,,---,0.00,VWS V13.00,2013-03-15 10:35:00,
2013-03-15 06:40:00,15.7,7.3,29.86,NW,323,7.0,10.0,69,0.00,,---,0.00,VWS V13.00,2013-03-15 10:40:00,
2013-03-15 06:45:00,15.7,7.3,29.87,NW,321,1.0,15.0,69,0.00,,---,0.00,VWS V13.00,2013-03-15 10:45:00,
2013-03-15 06:50:00,15.8,9.6,29.87,NW,309,3.0,19.0,76,0.00,,---,0.00,VWS V13.00,2013-03-15 10:50:00,
2013-03-15 06:55:00,15.9,7.5,29.86,NW,306,2.0,19.0,69,0.00,,---,0.00,VWS V13.00,2013-03-15 10:55:00,
2013-03-15 07:00:00,15.9,7.9,29.87,WNW,303,4.0,19.0,70,0.00,,---,0.00,VWS V13.00,2013-03-15 11:00:00,
2013-03-15 07:05:00,16.0,7.6,29.87,WNW,302,4.0,19.0,69,0.00,,---,0.00,VWS V13.00,2013-03-15 11:05:00,
2013-03-15 07:10:00,16.0,8.0,29.87,NNW,328,3.0,14.0,70,0.00,,---,0.00,VWS V13.00,2013-03-15 11:10:00,
2013-03-15 07:15:00,16.0,8.0,29.87,NW,315,11.0,14.0,70,0.00,,---,0.00,VWS V13.00,2013-03-15 11:15:00,
2013-03-15 07:20:00,16.0,8.0,29.87,WNW,303,4.0,14.0,70,0.00,,---,0.00,VWS V13.00,2013-03-15 11:20:00,
2013-03-15 07:25:00,16.0,8.0,29.87,NW,319,1.0,14.0,70,0.00,,---,0.00,VWS V13.00,2013-03-15 11:25:00,
2013-03-15 07:30:00,16.0,8.0,29.87,NW,324,9.0,14.0,70,0.00,,---,0.00,VWS V13.00,2013-03-15 11:30:00,
2013-03-15 07:35:00,16.0,8.0,29.87,North,10,5.0,14.0,70,0.00,,---,0.00,VWS V13.00,2013-03-15 11:35:00,
2013-03-15 07:40:00,16.0,8.0,29.87,NW,314,1.0,9.0,70,0.00,,---,0.00,VWS V13.00,2013-03-15 11:40:00,
2013-03-15 07:45:00,16.0,8.3,29.87,NNW,334,5.0,9.0,71,0.00,,---,0.00,VWS V13.00,2013-03-15 11:45:00,
2013-03-15 07:50:00,16.1,8.1,29.88,NNW,332,4.0,13.0,70,0.00,,---,0.00,VWS V13.00,2013-03-15 11:50:00,
2013-03-15 07:55:00,16.2,8.1,29.88,NNE,12,4.0,13.0,70,0.00,,---,0.00,VWS V13.00,2013-03-15 11:55:00,
2013-03-15 08:00:00,16.4,8.3,29.87,NNW,333,4.0,13.0,70,0.00,,---,0.00,VWS V13.00,2013-03-15 12:00:00,
2013-03-15 08:05:00,16.7,8.3,29.87,NNW,331,2.0,13.0,69,0.00,,---,0.00,VWS V13.00,2013-03-15 12:05:00,
2013-03-15 08:10:00,17.0,8.6,29.87,North,349,2.0,10.0,69,0.00,,---,0.00,VWS V13.00,2013-03-15 12:10:00,
2013-03-15 08:15:00,17.3,8.6,29.87,NW,313,6.0,13.0,68,0.00,,---,0.00,VWS V13.00,2013-03-15 12:15:00,
2013-03-15 08:20:00,17.5,8.8,29.87,NW,306,5.0,13.0,68,0.00,,---,0.00,VWS V13.00,2013-03-15 12:20:00,
2013-03-15 08:25:00,17.7,8.9,29.88,WNW,293,2.0,13.0,68,0.00,,---,0.00,VWS V13.00,2013-03-15 12:25:00,
2013-03-15 08:30:00,17.8,9.0,29.88,WNW,298,3.0,13.0,68,0.00,,---,0.00,VWS V13.00,2013-03-15 12:30:00,
2013-03-15 08:35:00,17.9,8.8,29.88,NNW,342,6.0,13.0,67,0.00,,---,0.00,VWS V13.00,2013-03-15 12:35:00,
2013-03-15 08:40:00,18.2,9.1,29.87,NNW,330,4.0,10.0,67,0.00,,---,0.00,VWS V13.00,2013-03-15 12:40:00,
2013-03-15 08:45:00,18.5,9.1,29.88,North,5,4.0,19.0,66,0.00,,---,0.00,VWS V13.00,2013-03-15 12:45:00,
2013-03-15 08:50:00,18.8,9.0,29.87,WNW,295,9.0,19.0,65,0.00,,---,0.00,VWS V13.00,2013-03-15 12:50:00,
2013-03-15 08:55:00,18.9,9.1,29.88,NNW,346,5.0,19.0,65,0.00,,---,0.00,VWS V13.00,2013-03-15 12:55:00,
2013-03-15 09:00:00,19.0,9.2,29.88,WNW,300,9.0,19.0,65,0.00,,---,0.00,VWS V13.00,2013-03-15 13:00:00,
2013-03-15 09:05:00,19.0,9.2,29.87,WNW,296,6.0,19.0,65,0.00,,---,0.00,VWS V13.00,2013-03-15 13:05:00,
2013-03-15 09:10:00,19.0,9.2,29.88,NW,312,2.0,13.0,65,0.00,,---,0.00,VWS V13.00,2013-03-15 13:10:00,
2013-03-15 09:15:00,19.1,9.3,29.88,NNW,341,6.0,13.0,65,0.00,,---,0.00,VWS V13.00,2013-03-15 13:15:00,
2013-03-15 09:20:00,19.5,9.3,29.87,NNW,327,5.0,14.0,64,0.00,,---,0.00,VWS V13.00,2013-03-15 13:20:00,
2013-03-15 09:25:00,19.8,9.6,29.87,NW,304,1.0,15.0,64,0.00,,---,0.00,VWS V13.00,2013-03-15 13:25:00,
2013-03-15 09:30:00,20.1,9.5,29.88,WNW,282,5.0,15.0,63,0.00,,---,0.00,VWS V13.00,2013-03-15 13:30:00,
2013-03-15 09:35:00,20.4,9.8,29.88,WNW,286,2.0,15.0,63,0.00,,---,0.00,VWS V13.00,2013-03-15 13:35:00,
2013-03-15 09:40:00,20.8,9.9,29.88,WNW,288,5.0,10.0,62,0.00,,---,0.00,VWS V13.00,2013-03-15 13:40:00,
2013-03-15 09:45:00,21.4,10.4,29.88,West,276,3.0,10.0,62,0.00,,---,0.00,VWS V13.00,2013-03-15 13:45:00,
2013-03-15 09:50:00,22.2,11.2,29.87,NNW,332,5.0,10.0,62,0.00,,---,0.00,VWS V13.00,2013-03-15 13:50:00,
2013-03-15 09:55:00,22.8,10.2,29.87,West,281,5.0,11.0,58,0.00,,---,0.00,VWS V13.00,2013-03-15 13:55:00,
2013-03-15 10:00:00,22.9,10.7,29.87,WNW,283,3.0,11.0,59,0.00,,---,0.00,VWS V13.00,2013-03-15 14:00:00,
2013-03-15 10:05:00,23.5,11.7,29.87,WNW,294,4.0,11.0,60,0.00,,---,0.00,VWS V13.00,2013-03-15 14:05:00,
2013-03-15 10:10:00,24.1,11.5,29.87,West,263,4.0,11.0,58,0.00,,---,0.00,VWS V13.00,2013-03-15 14:10:00,
2013-03-15 10:15:00,24.2,11.6,29.87,WNW,288,4.0,11.0,58,0.00,,---,0.00,VWS V13.00,2013-03-15 14:15:00,
2013-03-15 10:20:00,23.7,10.3,29.86,WSW,250,2.0,11.0,56,0.00,,---,0.00,VWS V13.00,2013-03-15 14:20:00,
2013-03-15 10:25:00,23.6,11.0,29.86,WNW,286,2.0,11.0,58,0.00,,---,0.00,VWS V13.00,2013-03-15 14:25:00,
2013-03-15 10:30:00,24.0,10.6,29.86,NNW,336,1.0,11.0,56,0.00,,---,0.00,VWS V13.00,2013-03-15 14:30:00,
2013-03-15 10:35:00,24.3,10.5,29.85,WSW,242,5.0,11.0,55,0.00,,---,0.00,VWS V13.00,2013-03-15 14:35:00,
2013-03-15 10:40:00,24.9,10.6,29.85,WNW,285,3.0,10.0,54,0.00,,---,0.00,VWS V13.00,2013-03-15 14:40:00,
2013-03-15 10:45:00,25.8,10.6,29.85,West,277,4.0,10.0,52,0.00,,---,0.00,VWS V13.00,2013-03-15 14:45:00,
2013-03-15 10:50:00,26.0,10.8,29.85,West,278,2.0,10.0,52,0.00,,---,0.00,VWS V13.00,2013-03-15 14:50:00,
2013-03-15 10:55:00,25.8,10.2,29.84,WSW,253,3.0,10.0,51,0.00,,---,0.00,VWS V13.00,2013-03-15 14:55:00,
2013-03-15 11:00:00,26.2,11.0,29.84,NW,310,4.0,10.0,52,0.00,,---,0.00,VWS V13.00,2013-03-15 15:00:00,
2013-03-15 11:05:00,27.1,10.9,29.84,WNW,288,2.0,10.0,50,0.00,,---,0.00,VWS V13.00,2013-03-15 15:05:00,
2013-03-15 11:10:00,27.2,11.0,29.84,WNW,288,3.0,4.0,50,0.00,,---,0.00,VWS V13.00,2013-03-15 15:10:00,
2013-03-15 11:15:00,27.8,10.7,29.83,NW,308,3.0,11.0,48,0.00,,---,0.00,VWS V13.00,2013-03-15 15:15:00,
2013-03-15 11:20:00,28.1,10.9,29.83,NW,307,7.0,12.0,48,0.00,,---,0.00,VWS V13.00,2013-03-15 15:20:00,
2013-03-15 11:25:00,28.7,10.6,29.83,West,277,3.0,12.0,46,0.00,,---,0.00,VWS V13.00,2013-03-15 15:25:00,
2013-03-15 11:30:00,28.8,10.1,29.82,West,275,3.0,12.0,45,0.00,,---,0.00,VWS V13.00,2013-03-15 15:30:00,
2013-03-15 11:35:00,28.8,10.6,29.82,WSW,237,3.0,12.0,46,0.00,,---,0.00,VWS V13.00,2013-03-15 15:35:00,
2013-03-15 11:40:00,28.5,10.9,29.82,WSW,257,3.0,10.0,47,0.00,,---,0.00,VWS V13.00,2013-03-15 15:40:00,
2013-03-15 11:45:00,28.6,11.4,29.82,WSW,245,2.0,10.0,48,0.00,,---,0.00,VWS V13.00,2013-03-15 15:45:00,
2013-03-15 11:50:00,28.8,10.6,29.82,West,271,3.0,10.0,46,0.00,,---,0.00,VWS V13.00,2013-03-15 15:50:00,
2013-03-15 11:55:00,29.2,11.0,29.82,WSW,251,1.0,10.0,46,0.00,,---,0.00,VWS V13.00,2013-03-15 15:55:00,
2013-03-15 12:00:00,29.6,11.4,29.81,SW,227,5.0,10.0,46,0.00,,---,0.00,VWS V13.00,2013-03-15 16:00:00,
2013-03-15 12:05:00,29.9,11.2,29.81,SSW,209,2.0,10.0,45,0.00,,---,0.00,VWS V13.00,2013-03-15 16:05:00,
2013-03-15 12:10:00,30.3,12.0,29.81,WSW,251,2.0,5.0,46,0.00,,---,0.00,VWS V13.00,2013-03-15 16:10:00,
2013-03-15 12:15:00,30.5,11.2,29.81,SSW,211,2.0,9.0,44,0.00,,---,0.00,VWS V13.00,2013-03-15 16:15:00,
2013-03-15 12:20:00,30.9,12.6,29.80,SSW,212,2.0,9.0,46,0.00,,---,0.00,VWS V13.00,2013-03-15 16:20:00,
2013-03-15 12:25:00,31.5,12.1,29.80,SSW,202,0.0,9.0,44,0.00,,---,0.00,VWS V13.00,2013-03-15 16:25:00,
2013-03-15 12:30:00,32.1,11.1,29.79,WSW,248,1.0,9.0,41,0.00,,---,0.00,VWS V13.00,2013-03-15 16:30:00,
2013-03-15 12:35:00,32.1,11.1,29.79,WSW,249,4.0,9.0,41,0.00,,---,0.00,VWS V13.00,2013-03-15 16:35:00,
2013-03-15 12:40:00,32.4,11.9,29.79,SW,223,11.0,11.0,42,0.00,,---,0.00,VWS V13.00,2013-03-15 16:40:00,
2013-03-15 12:45:00,32.5,10.9,29.79,SW,229,4.0,11.0,40,0.00,,---,0.00,VWS V13.00,2013-03-15 16:45:00,
2013-03-15 12:50:00,32.3,10.1,29.78,WSW,248,0.0,11.0,39,0.00,,---,0.00,VWS V13.00,2013-03-15 16:50:00,
2013-03-15 12:55:00,33.0,10.8,29.77,SW,226,3.0,11.0,39,0.00,,---,0.00,VWS V13.00,2013-03-15 16:55:00,
2013-03-15 13:00:00,33.3,10.4,29.77,West,277,2.0,11.0,38,0.00,,---,0.00,VWS V13.00,2013-03-15 17:00:00,
2013-03-15 13:05:00,33.4,11.1,29.77,WSW,242,4.0,11.0,39,0.00,,---,0.00,VWS V13.00,2013-03-15 17:05:00,
2013-03-15 13:10:00,33.4,11.7,29.77,SW,214,2.0,7.0,40,0.00,,---,0.00,VWS V13.00,2013-03-15 17:10:00,
2013-03-15 13:15:00,33.8,10.9,29.76,West,281,4.0,11.0,38,0.00,,---,0.00,VWS V13.00,2013-03-15 17:15:00,
2013-03-15 13:20:00,33.2,10.9,29.76,WSW,246,4.0,13.0,39,0.00,,---,0.00,VWS V13.00,2013-03-15 17:20:00,
2013-03-15 13:25:00,33.2,11.5,29.76,SSE,164,2.0,13.0,40,0.00,,---,0.00,VWS V13.00,2013-03-15 17:25:00,
2013-03-15 13:30:00,33.9,12.1,29.75,SW,234,3.0,13.0,40,0.00,,---,0.00,VWS V13.00,2013-03-15 17:30:00,
2013-03-15 13:35:00,34.4,12.0,29.75,SW,221,5.0,13.0,39,0.00,,---,0.00,VWS V13.00,2013-03-15 17:35:00,
2013-03-15 13:40:00,34.5,12.7,29.74,SSW,205,0.0,7.0,40,0.00,,---,0.00,VWS V13.00,2013-03-15 17:40:00,
2013-03-15 13:45:00,35.2,12.7,29.74,SSW,209,2.0,7.0,39,0.00,,---,0.00,VWS V13.00,2013-03-15 17:45:00,
2013-03-15 13:50:00,35.8,12.1,29.73,SW,216,6.0,7.0,37,0.00,,---,0.00,VWS V13.00,2013-03-15 17:50:00,
2013-03-15 13:55:00,36.0,12.9,29.73,SW,234,8.0,11.0,38,0.00,,---,0.00,VWS V13.00,2013-03-15 17:55:00,
2013-03-15 14:00:00,35.9,12.2,29.73,SW,215,3.0,12.0,37,0.00,,---,0.00,VWS V13.00,2013-03-15 18:00:00,
2013-03-15 14:05:00,36.3,13.1,29.72,WNW,282,3.0,12.0,38,0.00,,---,0.00,VWS V13.00,2013-03-15 18:05:00,
2013-03-15 14:10:00,36.4,13.2,29.72,WSW,240,2.0,6.0,38,0.00,,---,0.00,VWS V13.00,2013-03-15 18:10:00,
2013-03-15 14:15:00,36.6,14.0,29.71,SSW,213,5.0,9.0,39,0.00,,---,0.00,VWS V13.00,2013-03-15 18:15:00,
2013-03-15 14:20:00,37.0,15.5,29.70,SSW,195,2.0,11.0,41,0.00,,---,0.00,VWS V13.00,2013-03-15 18:20:00,
2013-03-15 14:25:00,36.6,13.4,29.70,SW,226,6.0,11.0,38,0.00,,---,0.00,VWS V13.00,2013-03-15 18:25:00,
2013-03-15 14:30:00,36.1,14.7,29.70,SW,223,2.0,11.0,41,0.00,,---,0.00,VWS V13.00,2013-03-15 18:30:00,
2013-03-15 14:35:00,36.6,14.0,29.70,WNW,285,2.0,11.0,39,0.00,,---,0.00,VWS V13.00,2013-03-15 18:35:00,
2013-03-15 14:40:00,37.2,13.9,29.69,SSW,207,7.0,13.0,38,0.00,,---,0.00,VWS V13.00,2013-03-15 18:40:00,
2013-03-15 14:45:00,37.1,14.4,29.70,West,269,6.0,14.0,39,0.00,,---,0.00,VWS V13.00,2013-03-15 18:45:00,
2013-03-15 14:50:00,36.9,16.5,29.69,SW,229,5.0,14.0,43,0.00,,---,0.00,VWS V13.00,2013-03-15 18:50:00,
2013-03-15 14:55:00,36.9,14.3,29.69,SW,226,4.0,16.0,39,0.00,,---,0.00,VWS V13.00,2013-03-15 18:55:00,
2013-03-15 15:00:00,36.6,15.1,29.69,West,277,1.0,16.0,41,0.00,,---,0.00,VWS V13.00,2013-03-15 19:00:00,
2013-03-15 15:05:00,36.6,15.1,29.69,WSW,250,9.0,17.0,41,0.00,,---,0.00,VWS V13.00,2013-03-15 19:05:00,
2013-03-15 15:10:00,36.7,14.7,29.69,West,267,3.0,7.0,40,0.00,,---,0.00,VWS V13.00,2013-03-15 19:10:00,
2013-03-15 15:15:00,37.0,14.9,29.68,SW,220,4.0,9.0,40,0.00,,---,0.00,VWS V13.00,2013-03-15 19:15:00,
2013-03-15 15:20:00,37.3,17.4,29.69,WNW,303,5.0,10.0,44,0.00,,---,0.00,VWS V13.00,2013-03-15 19:20:00,
2013-03-15 15:25:00,37.0,16.1,29.68,SW,229,3.0,15.0,42,0.00,,---,0.00,VWS V13.00,2013-03-15 19:25:00,
2013-03-15 15:30:00,37.2,16.2,29.68,WNW,295,4.0,15.0,42,0.00,,---,0.00,VWS V13.00,2013-03-15 19:30:00,
2013-03-15 15:35:00,37.3,16.3,29.68,NW,311,5.0,15.0,42,0.00,,---,0.00,VWS V13.00,2013-03-15 19:35:00,
2013-03-15 15:40:00,37.4,17.0,29.68,WNW,292,6.0,7.0,43,0.00,,---,0.00,VWS V13.00,2013-03-15 19:40:00,
2013-03-15 15:45:00,37.2,16.2,29.67,SW,224,6.0,9.0,42,0.00,,---,0.00,VWS V13.00,2013-03-15 19:45:00,
2013-03-15 15:50:00,37.3,16.9,29.67,SW,228,3.0,12.0,43,0.00,,---,0.00,VWS V13.00,2013-03-15 19:50:00,
2013-03-15 15:55:00,37.0,17.6,29.67,SW,231,7.0,12.0,45,0.00,,---,0.00,VWS V13.00,2013-03-15 19:55:00,
2013-03-15 16:00:00,37.0,18.2,29.67,WSW,257,5.0,12.0,46,0.00,,---,0.00,VWS V13.00,2013-03-15 20:00:00,
2013-03-15 16:05:00,36.7,18.4,29.67,West,280,3.0,12.0,47,0.00,,---,0.00,VWS V13.00,2013-03-15 20:05:00,
2013-03-15 16:10:00,36.8,18.5,29.67,WSW,248,5.0,6.0,47,0.00,,---,0.00,VWS V13.00,2013-03-15 20:10:00,
2013-03-15 16:15:00,36.5,20.1,29.67,SW,225,9.0,18.0,51,0.00,,---,0.00,VWS V13.00,2013-03-15 20:15:00,
2013-03-15 16:20:00,36.2,21.2,29.67,SW,225,11.0,18.0,54,0.00,,---,0.00,VWS V13.00,2013-03-15 20:20:00,
2013-03-15 16:25:00,35.9,21.8,29.67,West,273,2.0,18.0,56,0.00,,---,0.00,VWS V13.00,2013-03-15 20:25:00,
2013-03-15 16:30:00,35.9,21.8,29.67,WNW,292,2.0,18.0,56,0.00,,---,0.00,VWS V13.00,2013-03-15 20:30:00,
2013-03-15 16:35:00,36.0,22.3,29.67,WNW,294,2.0,18.0,57,0.00,,---,0.00,VWS V13.00,2013-03-15 20:35:00,
2013-03-15 16:39:00,35.7,21.6,29.67,WSW,252,5.0,14.0,56,0.00,,---,0.00,VWS V13.00,2013-03-15 20:39:00,
2013-03-15 16:44:00,35.4,21.7,29.67,WSW,252,6.0,14.0,57,0.00,,---,0.00,VWS V13.00,2013-03-15 20:44:00,
2013-03-15 16:49:00,35.0,21.7,29.67,WSW,238,8.0,16.0,58,0.00,,---,0.00,VWS V13.00,2013-03-15 20:49:00,
2013-03-15 16:54:00,34.9,22.8,29.67,WSW,245,6.0,16.0,61,0.00,,---,0.00,VWS V13.00,2013-03-15 20:54:00,
2013-03-15 17:00:00,34.6,22.9,29.67,WSW,238,2.0,16.0,62,0.00,,---,0.00,VWS V13.00,2013-03-15 21:00:00,
2013-03-15 17:04:00,34.5,22.8,29.67,West,279,7.0,16.0,62,0.00,,---,0.00,VWS V13.00,2013-03-15 21:04:00,
2013-03-15 17:09:00,34.4,23.1,29.67,SW,234,4.0,7.0,63,0.00,,---,0.00,VWS V13.00,2013-03-15 21:09:00,
2013-03-15 17:14:00,34.4,23.9,29.67,WSW,240,9.0,14.0,65,0.00,,---,0.00,VWS V13.00,2013-03-15 21:14:00,
2013-03-15 17:20:00,33.9,24.1,29.66,WSW,238,5.0,14.0,67,0.00,,---,0.00,VWS V13.00,2013-03-15 21:20:00,
2013-03-15 17:25:00,33.5,25.1,29.66,WSW,254,8.0,14.0,71,0.00,,---,0.00,VWS V13.00,2013-03-15 21:25:00,
2013-03-15 17:30:00,33.4,25.0,29.67,SW,227,6.0,14.0,71,0.00,,---,0.00,VWS V13.00,2013-03-15 21:30:00,
2013-03-15 17:35:00,33.3,25.3,29.67,SW,234,4.0,14.0,72,0.00,,---,0.00,VWS V13.00,2013-03-15 21:35:00,
2013-03-15 17:40:00,33.2,25.2,29.66,SW,225,3.0,7.0,72,0.00,,---,0.00,VWS V13.00,2013-03-15 21:40:00,
2013-03-15 17:45:00,33.3,25.6,29.66,SW,221,8.0,13.0,73,0.00,,---,0.00,VWS V13.00,2013-03-15 21:45:00,
2013-03-15 17:50:00,33.3,25.9,29.67,West,269,10.0,16.0,74,0.00,,---,0.00,VWS V13.00,2013-03-15 21:50:00,
2013-03-15 17:55:00,33.2,26.1,29.66,WSW,242,7.0,16.0,75,0.00,,---,0.00,VWS V13.00,2013-03-15 21:55:00,
2013-03-15 18:00:00,33.0,26.3,29.67,SW,215,4.0,16.0,76,0.00,,---,0.00,VWS V13.00,2013-03-15 22:00:00,
2013-03-15 18:05:00,33.0,26.6,29.66,SW,215,3.0,16.0,77,0.00,,---,0.00,VWS V13.00,2013-03-15 22:05:00,
2013-03-15 18:10:00,33.0,26.3,29.66,SW,234,4.0,6.0,76,0.00,,---,0.00,VWS V13.00,2013-03-15 22:10:00,
2013-03-15 18:15:00,32.9,26.5,29.66,West,270,3.0,6.0,77,0.00,,---,0.00,VWS V13.00,2013-03-15 22:15:00,
2013-03-15 18:20:00,32.9,26.5,29.66,WSW,254,4.0,7.0,77,0.00,,---,0.00,VWS V13.00,2013-03-15 22:20:00,
2013-03-15 18:25:00,32.9,26.5,29.66,SW,230,2.0,7.0,77,0.00,,---,0.00,VWS V13.00,2013-03-15 22:25:00,
2013-03-15 18:30:00,33.0,26.6,29.67,WSW,237,0.0,9.0,77,0.00,,---,0.00,VWS V13.00,2013-03-15 22:30:00,
2013-03-15 18:35:00,33.0,26.9,29.67,WSW,238,2.0,9.0,78,0.00,,---,0.00,VWS V13.00,2013-03-15 22:35:00,
2013-03-15 18:40:00,32.9,26.5,29.67,SSW,211,3.0,6.0,77,0.00,,---,0.00,VWS V13.00,2013-03-15 22:40:00,
2013-03-15 18:45:00,32.9,26.8,29.67,WSW,237,1.0,6.0,78,0.00,,---,0.00,VWS V13.00,2013-03-15 22:45:00,
2013-03-15 18:50:00,32.7,26.9,29.67,West,268,2.0,9.0,79,0.00,,---,0.00,VWS V13.00,2013-03-15 22:50:00,
2013-03-15 18:55:00,32.6,27.1,29.67,SW,225,5.0,9.0,80,0.00,,---,0.00,VWS V13.00,2013-03-15 22:55:00,
2013-03-15 19:00:00,32.5,27.3,29.67,SW,234,0.0,9.0,81,0.00,,---,0.00,VWS V13.00,2013-03-15 23:00:00,
2013-03-15 19:05:00,32.4,27.2,29.66,SW,221,2.0,9.0,81,0.00,,---,0.00,VWS V13.00,2013-03-15 23:05:00,
2013-03-15 19:10:00,32.3,27.4,29.66,WSW,238,4.0,6.0,82,0.00,,---,0.00,VWS V13.00,2013-03-15 23:10:00,
2013-03-15 19:15:00,32.2,27.3,29.66,SW,236,6.0,7.0,82,0.00,,---,0.00,VWS V13.00,2013-03-15 23:15:00,
2013-03-15 19:20:00,32.3,27.7,29.67,WSW,242,4.0,7.0,83,0.00,,---,0.00,VWS V13.00,2013-03-15 23:20:00,
2013-03-15 19:25:00,32.3,28.0,29.67,WSW,253,3.0,7.0,84,0.00,,---,0.00,VWS V13.00,2013-03-15 23:25:00,
2013-03-15 19:30:00,32.3,28.0,29.66,WSW,245,3.0,7.0,84,0.00,,---,0.00,VWS V13.00,2013-03-15 23:30:00,
2013-03-15 19:35:00,32.3,28.0,29.66,SW,221,4.0,11.0,84,0.00,,---,0.00,VWS V13.00,2013-03-15 23:35:00,
2013-03-15 19:40:00,32.2,28.2,29.66,SW,223,4.0,6.0,85,0.00,,---,0.00,VWS V13.00,2013-03-15 23:40:00,
2013-03-15 19:45:00,32.1,28.1,29.66,SW,214,3.0,7.0,85,0.00,,---,0.00,VWS V13.00,2013-03-15 23:45:00,
2013-03-15 19:50:00,32.1,28.4,29.66,SW,218,1.0,7.0,86,0.00,,---,0.00,VWS V13.00,2013-03-15 23:50:00,
2013-03-15 19:55:00,32.1,28.7,29.66,SSW,200,3.0,7.0,87,0.00,,---,0.00,VWS V13.00,2013-03-15 23:55:00,
2013-03-15 20:00:00,32.0,28.9,29.66,SW,225,3.0,7.0,88,0.00,,---,0.00,VWS V13.00,2013-03-16 00:00:00,
2013-03-15 20:05:00,31.8,28.7,29.66,SSW,210,5.0,7.0,88,0.00,,---,0.00,VWS V13.00,2013-03-16 00:05:00,
2013-03-15 20:10:00,31.6,28.7,29.66,SW,223,3.0,9.0,89,0.00,,---,0.00,VWS V13.00,2013-03-16 00:10:00,
2013-03-15 20:15:00,31.5,28.6,29.66,SW,234,5.0,11.0,89,0.00,,---,0.00,VWS V13.00,2013-03-16 00:15:00,
2013-03-15 20:20:00,31.5,28.9,29.66,SW,221,4.0,11.0,90,0.00,,---,0.00,VWS V13.00,2013-03-16 00:20:00,
2013-03-15 20:25:00,31.5,28.9,29.66,SSW,213,3.0,11.0,90,0.00,,---,0.00,VWS V13.00,2013-03-16 00:25:00,
2013-03-15 20:30:00,31.6,29.3,29.66,SW,217,5.0,11.0,91,0.00,,---,0.00,VWS V13.00,2013-03-16 00:30:00,
2013-03-15 20:35:00,31.6,29.3,29.66,SSW,206,5.0,11.0,91,0.00,,---,0.00,VWS V13.00,2013-03-16 00:35:00,
2013-03-15 20:40:00,31.5,29.2,29.66,SW,219,4.0,7.0,91,0.00,,---,0.00,VWS V13.00,2013-03-16 00:40:00,
2013-03-15 20:45:00,31.3,29.0,29.66,SSW,206,3.0,7.0,91,0.00,,---,0.00,VWS V13.00,2013-03-16 00:45:00,
2013-03-15 20:50:00,31.2,28.9,29.66,SW,231,3.0,7.0,91,0.00,,---,0.00,VWS V13.00,2013-03-16 00:50:00,
2013-03-15 20:55:00,31.1,29.0,29.66,SW,225,10.0,10.0,92,0.00,,---,0.00,VWS V13.00,2013-03-16 00:55:00,
2013-03-15 21:00:00,31.1,29.0,29.66,SW,219,6.0,10.0,92,0.00,,---,0.00,VWS V13.00,2013-03-16 01:00:00,
2013-03-15 21:05:00,31.1,29.0,29.65,SW,231,3.0,12.0,92,0.00,,---,0.00,VWS V13.00,2013-03-16 01:05:00,
2013-03-15 21:10:00,31.0,29.2,29.65,WSW,238,5.0,8.0,93,0.00,,---,0.00,VWS V13.00,2013-03-16 01:10:00,
2013-03-15 21:15:00,31.0,29.2,29.65,SW,224,6.0,8.0,93,0.00,,---,0.00,VWS V13.00,2013-03-16 01:15:00,
2013-03-15 21:20:00,31.0,29.2,29.65,SW,230,7.0,8.0,93,0.00,,---,0.00,VWS V13.00,2013-03-16 01:20:00,
2013-03-15 21:25:00,31.0,29.5,29.65,WSW,245,5.0,8.0,94,0.00,,---,0.00,VWS V13.00,2013-03-16 01:25:00,
2013-03-15 21:30:00,30.9,29.4,29.65,SW,234,3.0,8.0,94,0.00,,---,0.00,VWS V13.00,2013-03-16 01:30:00,
2013-03-15 21:35:00,31.0,29.5,29.64,WSW,238,3.0,8.0,94,0.00,,---,0.00,VWS V13.00,2013-03-16 01:35:00,
2013-03-15 21:40:00,31.1,29.6,29.64,SW,229,4.0,8.0,94,0.00,,---,0.00,VWS V13.00,2013-03-16 01:40:00,
2013-03-15 21:45:00,31.2,29.7,29.65,West,266,4.0,8.0,94,0.00,,---,0.00,VWS V13.00,2013-03-16 01:45:00,
2013-03-15 21:50:00,31.3,29.8,29.64,SW,233,3.0,8.0,94,0.00,,---,0.00,VWS V13.00,2013-03-16 01:50:00,
2013-03-15 21:55:00,31.4,29.9,29.64,West,272,2.0,8.0,94,0.00,,---,0.00,VWS V13.00,2013-03-16 01:55:00,
2013-03-15 22:00:00,31.2,29.7,29.64,West,272,1.0,8.0,94,0.00,,---,0.00,VWS V13.00,2013-03-16 02:00:00,
2013-03-15 22:05:00,31.0,29.5,29.64,West,272,2.0,8.0,94,0.00,,---,0.00,VWS V13.00,2013-03-16 02:05:00,
2013-03-15 22:10:00,30.8,29.3,29.64,West,272,1.0,2.0,94,0.00,,---,0.00,VWS V13.00,2013-03-16 02:10:00,
2013-03-15 22:15:00,30.7,29.2,29.64,West,269,2.0,4.0,94,0.00,,---,0.00,VWS V13.00,2013-03-16 02:15:00,
2013-03-15 22:20:00,30.7,29.2,29.64,WSW,252,2.0,5.0,94,0.00,,---,0.00,VWS V13.00,2013-03-16 02:20:00,
2013-03-15 22:25:00,30.8,29.3,29.64,WSW,247,3.0,5.0,94,0.00,,---,0.00,VWS V13.00,2013-03-16 02:25:00,
2013-03-15 22:30:00,30.7,29.2,29.64,WSW,247,2.0,5.0,94,0.00,,---,0.00,VWS V13.00,2013-03-16 02:30:00,
2013-03-15 22:35:00,30.7,28.9,29.64,WSW,245,2.0,6.0,93,0.00,,---,0.00,VWS V13.00,2013-03-16 02:35:00,
2013-03-15 22:40:00,30.6,28.8,29.64,WSW,250,3.0,10.0,93,0.00,,---,0.00,VWS V13.00,2013-03-16 02:40:00,
2013-03-15 22:45:00,30.8,29.0,29.64,West,277,4.0,10.0,93,0.00,,---,0.00,VWS V13.00,2013-03-16 02:45:00,
2013-03-15 22:50:00,30.8,28.8,29.64,SW,225,6.0,10.0,92,0.00,,---,0.00,VWS V13.00,2013-03-16 02:50:00,
2013-03-15 22:55:00,31.0,28.7,29.64,SW,232,12.0,12.0,91,0.00,,---,0.00,VWS V13.00,2013-03-16 02:55:00,
2013-03-15 23:00:00,31.3,28.7,29.65,West,263,3.0,12.0,90,0.00,,---,0.00,VWS V13.00,2013-03-16 03:00:00,
2013-03-15 23:05:00,31.5,28.4,29.65,WNW,296,8.0,12.0,88,0.00,,---,0.00,VWS V13.00,2013-03-16 03:05:00,
2013-03-15 23:10:00,31.7,28.6,29.66,NE,56,7.0,15.0,88,0.00,,---,0.00,VWS V13.00,2013-03-16 03:10:00,
2013-03-15 23:15:00,31.4,28.8,29.67,NW,318,6.0,15.0,90,0.00,,---,0.00,VWS V13.00,2013-03-16 03:15:00,
2013-03-15 23:20:00,30.6,28.3,29.68,North,349,3.0,15.0,91,0.00,,---,0.00,VWS V13.00,2013-03-16 03:20:00,
2013-03-15 23:25:00,30.1,27.8,29.68,NW,322,5.0,15.0,91,0.00,,---,0.00,VWS V13.00,2013-03-16 03:25:00,
2013-03-15 23:30:00,29.7,27.7,29.68,NW,318,2.0,15.0,92,0.00,,---,0.00,VWS V13.00,2013-03-16 03:30:00,
2013-03-15 23:35:00,29.4,27.4,29.69,NW,326,4.0,15.0,92,0.00,,---,0.00,VWS V13.00,2013-03-16 03:35:00,
2013-03-15 23:40:00,29.2,27.2,29.69,NW,320,4.0,10.0,92,0.00,,---,0.00,VWS V13.00,2013-03-16 03:40:00,
2013-03-15 23:45:00,29.0,26.7,29.70,NNW,345,5.0,12.0,91,0.00,,---,0.00,VWS V13.00,2013-03-16 03:45:00,
2013-03-15 23:50:00,28.8,26.5,29.70,NNW,343,5.0,12.0,91,0.00,,---,0.00,VWS V13.00,2013-03-16 03:50:00,
2013-03-15 23:55:00,28.7,26.1,29.70,NW,306,3.0,12.0,90,0.00,,---,0.00,VWS V13.00,2013-03-16 03:55:00,